Temp
11 11 12 12 11 11 11 11 11 11 11 11 10 10 10 10 10 10 10 10 10 9 9 9 9 9 9 9 9 9 9 9 8 8 8 8 7 7 7 6 6 6 6 5 5 5 5 5 5 4 4 4 4 4 4 4 3 3 3 3 3 3 3 3 3 3 2 2 2
11 11 11 11 11 11 11 11 11 11 11 10 10 10 10 10 10 10 10 10 9 9 9 9 9 9 9 9 9 9 9 8 8 8 8 7 7 7 7 6 6 6 5 5 5 5 5 5 4 4 4 4 4 4 3 3 3 3 3 3 3 3 3 3 3 2 2 2 2
11 11 11 11 11 11 11 11 11 11 10 10 10 10 10 10 10 10 10 9 9 9 9 9 9 9 9 9 9 9 9 8 8 8 7 7 7 7 6 6 6 6 5 5 5 5 5 4 4 4 4 4 4 3 3 3 3 3 3 3 3 3 3 3 2 2 2 2 2
11 11 11 11 11 11 11 11 11 11 10 10 10 10 10 10 10 10 9 9 9 9 9 9 9 9 9 9 9 9 8 8 8 8 7 7 7 6 6 6 6 5 5 5 5 4 4 4 4 4 4 3 3 3 3 3 3 3 3 3 3 3 2 2 2 2 2 2 2
11 11 11 11 11 11 11 11 11 11 10 10 10 10 10 10 10 9 9 9 9 9 9 9 9 9 9 9 9 8 8 8 8 7 7 7 6 6 6 6 5 5 5 5 4 4 4 4 4 3 3 3 3 3 3 3 3 3 3 3 3 2 2 2 2 2 2 2 2
11 11 11 11 11 11 11 11 11 11 11 10 10 10 10 10 9 9 9 9 9 9 9 9 9 9 9 9 8 8 8 8 7 7 7 6 6 6 6 5 5 5 5 4 4 4 4 4 3 3 3 3 3 3 3 3 3 3 2 2 2 2 2 2 2 2 2 2 1
11 11 11 11 11 11 11 11 11 11 10 10 10 10 10 9 9 9 9 9 9 9 9 9 9 9 9 8 8 8 8 7 7 7 6 6 6 6 5 5 5 5 4 4 4 4 4 3 3 3 3 3 3 3 3 3 2 2 2 2 2 2 2 2 2 2 1 1 1
11 11 11 11 11 11 11 11 10 10 10 9 10 10 9 9 9 9 9 9 9 9 9 9 9 9 8 8 8 8 7 7 7 6 6 6 6 5 5 5 5 4 4 4 4 4 3 3 3 3 3 3 3 3 2 2 2 2 2 2 2 2 2 2 1 1 1 1 1
11 11 11 11 11 11 11 10 10 9 9 9 9 9 9 9 9 9 9 9 9 9 9 9 9 8 8 8 8 7 7 7 6 6 6 6 5 5 5 5 4 4 4 4 4 3 3 3 3 3 3 2 2 2 2 2 2 2 2 2 2 2 1 1 1 1 1 1 1
11 11 11 11 11 10 10 10 9 9 9 9 9 9 9 9 9 9 9 9 9 9 9 9 9 8 8 8 7 7 7 6 6 6 5 5 5 5 5 4 4 4 4 3 3 3 3 3 3 2 2 2 2 2 2 2 2 2 2 2 2 1 1 1 1 1 0 0 0
11 11 11 11 10 10 9 9 9 9 9 9 9 9 9 9 9 9 9 9 9 9 9 9 8 8 8 7 7 7 6 6 6 5 5 5 5 4 4 4 4 4 3 3 3 3 3 2 2 2 2 2 2 2 2 2 2 2 2 1 1 1 1 1 0 0 0 -0 -0
11 11 11 10 10 9 9 9 9 9 9 9 9 9 9 9 9 9 9 9 9 9 9 8 8 8 7 7 7 6 6 6 5 5 5 5 4 4 4 4 3 3 3 3 3 3 2 2 2 2 2 2 2 2 2 2 2 2 1 1 1 1 1 0 0 -0 -0 -0 -0
11 10 10 10 9 9 9 9 9 9 9 9 9 9 9 9 9 9 9 9 9 9 8 8 8 7 7 7 6 6 6 5 5 5 5 4 4 4 4 3 3 3 3 3 2 2 2 2 2 2 2 2 2 2 2 2 1 1 1 1 1 1 0 0 0 -0 -0 -0 -0
10 10 10 9 9 8 9 9 9 9 9 9 9 9 9 9 9 9 9 9 9 8 8 8 7 7 7 6 6 6 5 5 5 4 4 4 4 3 3 3 3 3 3 2 2 2 2 2 2 2 2 2 2 1 1 1 1 1 1 1 1 0 0 0 -0 -0 -0 -0 -1
10 9 9 9 9 9 9 9 9 9 9 9 9 9 9 9 9 9 9 8 8 8 8 7 7 7 6 6 6 5 5 5 4 4 4 4 3 3 3 3 3 2 2 2 2 2 2 2 2 2 2 1 1 1 1 1 1 1 1 0 0 0 0 -0 -0 -0 -0 -1 -1
9 9 9 8 8 8 8 9 9 9 9 9 9 9 9 9 9 9 8 8 8 8 7 7 7 6 6 5 5 5 4 4 4 4 3 3 3 3 3 3 2 2 2 2 2 2 2 2 1 1 1 1 1 1 1 1 1 0 0 0 0 -0 -0 -0 -0 -0 -1 -1 -1
9 9 8 8 8 8 8 8 9 9 9 9 9 9 9 9 9 8 8 8 8 7 7 6 6 6 5 5 5 4 4 4 4 3 3 3 3 3 2 2 2 2 2 2 2 2 1 1 1 1 1 1 1 1 1 1 0 0 0 -0 -0 -0 -0 -0 -1 -1 -1 -1 -1
8 8 8 8 8 8 8 8 9 9 9 9 9 9 9 9 8 8 8 8 7 7 6 6 6 5 5 5 4 4 4 4 3 3 3 3 2 2 2 2 2 2 2 1 1 1 1 1 1 1 1 1 1 1 0 0 0 0 -0 -0 -0 -0 -1 -1 -1 -1 -1 -1 -2
8 8 8 8 8 8 8 8 9 9 9 9 9 9 8 8 8 8 8 7 7 6 6 6 5 5 5 4 4 4 3 3 3 3 3 2 2 2 2 2 2 1 1 1 1 1 1 1 1 1 1 0 0 0 0 0 -0 -0 -0 -0 -1 -1 -1 -1 -1 -1 -1 -2 -2
8 8 8 8 8 8 8 8 9 9 9 9 9 8 8 8 8 7 7 7 6 6 5 5 5 5 4 4 4 3 3 3 3 2 2 2 2 2 2 2 1 1 1 1 1 1 1 1 0 0 0 0 0 0 -0 -0 -0 -0 -1 -1 -1 -1 -1 -1 -1 -1 -2 -2 -2
8 8 8 8 8 8 8 8 9 9 9 8 8 8 8 7 7 7 6 6 6 5 5 5 4 4 4 4 3 3 3 2 2 2 2 2 2 2 1 1 1 1 1 1 1 1 0 0 0 0 0 0 -0 -0 -0 -0 -1 -1 -1 -1 -1 -1 -1 -1 -2 -2 -2 -2 -2
8 8 8 8 8 8 8 8 8 8 8 8 8 8 7 7 7 6 6 6 5 5 5 4 4 4 4 3 3 3 2 2 2 2 2 2 1 1 1 1 1 1 1 1 0 0 0 0 -0 -0 -0 -0 -0 -0 -1 -1 -1 -1 -1 -1 -2 -2 -2 -2 -2 -2 -2 -2 -3
8 8 8 8 8 8 8 8 8 8 8 8 7 7 7 7 6 6 6 5 5 5 4 4 4 3 3 3 3 2 2 2 2 2 1 1 1 1 1 1 1 1 0 0 0 0 -0 -0 -0 -0 -1 -1 -1 -1 -1 -1 -1 -1 -1 -2 -2 -2 -2 -2 -2 -3 -3 -3 -3
8 8 8 8 8 8 8 8 8 8 8 7 7 7 7 6 6 5 5 5 4 4 4 4 3 3 3 2 2 2 2 2 2 1 1 1 1 1 1 1 1 0 0 0 0 -0 -0 -0 -1 -1 -1 -1 -2 -2 -2 -2 -2 -2 -2 -2 -2 -2 -2 -2 -3 -3 -3 -3 -4
8 8 8 8 8 8 8 8 8 7 7 7 7 6 6 6 5 5 5 4 4 4 4 3 3 3 2 2 2 2 2 2 1 1 1 1 1 1 1 0 0 0 0 -0 -0 -0 -0 -1 -1 -1 -1 -2 -2 -2 -2 -2 -2 -2 -2 -2 -2 -2 -2 -3 -3 -3 -3 -4 -4
8 8 8 8 8 7 7 7 7 7 7 7 6 6 5 5 5 4 4 4 4 3 3 3 3 2 2 2 2 2 1 1 1 1 1 1 1 0 0 0 0 -0 -0 -0 -0 -0 -1 -1 -1 -1 -1 -2 -2 -2 -2 -3 -3 -3 -3 -3 -3 -3 -3 -3 -3 -3 -4 -4 -5
8 8 8 7 7 7 7 7 7 7 6 6 6 5 5 5 4 4 4 4 3 3 3 3 2 2 2 2 2 1 1 1 1 1 0 0 0 0 0 -0 -0 -0 -0 -0 -1 -1 -1 -1 -1 -1 -2 -2 -2 -2 -2 -3 -3 -3 -3 -3 -3 -3 -3 -4 -4 -4 -4 -5 -5
8 7 7 7 7 7 7 7 7 6 6 6 5 5 5 4 4 4 3 3 3 3 2 2 2 2 2 1 1 1 1 1 0 0 0 0 0 0 -0 -0 -0 -0 -1 -1 -1 -1 -1 -1 -1 -2 -2 -2 -2 -2 -3 -3 -3 -3 -3 -3 -4 -4 -4 -4 -4 -5 -5 -5 -5
7 7 7 7 7 7 7 6 6 6 5 5 5 4 4 4 4 3 3 3 3 2 2 2 2 2 1 1 1 1 0 0 0 0 0 0 -0 -0 -0 -0 -1 -1 -1 -1 -1 -1 -1 -1 -2 -2 -2 -2 -2 -3 -3 -3 -3 -4 -4 -4 -4 -4 -4 -5 -5 -5 -5 -6 -6
7 7 7 7 7 7 6 6 5 5 5 5 4 4 4 4 3 3 3 2 2 2 2 2 1 1 1 1 0 0 0 0 -0 -0 -0 -0 -0 -0 -0 -1 -1 -1 -1 -1 -1 -1 -1 -2 -2 -2 -2 -2 -2 -3 -3 -3 -4 -4 -4 -4 -4 -4 -5 -5 -5 -5 -6 -6 -6
7 7 7 7 6 6 6 5 5 5 4 4 4 4 3 3 3 3 2 2 2 2 1 1 1 1 1 0 0 0 -0 -0 -0 -0 -0 -0 -0 -1 -1 -1 -1 -1 -1 -1 -1 -2 -2 -2 -2 -2 -2 -2 -3 -3 -3 -3 -4 -4 -4 -4 -5 -5 -5 -5 -5 -6 -6 -6 -7
7 7 7 6 6 6 5 5 5 4 4 4 3 3 3 3 3 2 2 2 2 1 1 1 1 1 0 0 -0 -0 -0 -0 -0 -0 -0 -1 -1 -1 -1 -1 -1 -1 -1 -1 -2 -2 -2 -2 -2 -2 -3 -3 -3 -3 -3 -4 -4 -4 -5 -5 -5 -5 -5 -6 -6 -6 -6 -7 -7
7 6 6 6 6 5 5 5 4 4 4 3 3 3 3 3 2 2 2 2 1 1 1 1 0 0 -0 -0 -0 -0 -0 -0 -0 -1 -1 -1 -1 -1 -1 -1 -1 -1 -2 -2 -2 -2 -2 -2 -2 -3 -3 -3 -3 -3 -3 -4 -4 -5 -5 -5 -6 -6 -6 -6 -7 -7 -7 -7 -7
6 6 6 6 5 5 5 4 4 4 3 3 3 3 2 2 2 2 1 1 1 1 1 0 0 -0 -0 -0 -0 -0 -1 -1 -1 -1 -1 -1 -1 -1 -1 -1 -2 -2 -2 -2 -2 -2 -2 -2 -3 -3 -3 -3 -3 -3 -4 -4 -5 -5 -5 -6 -6 -6 -7 -7 -7 -7 -7 -7 -8
6 6 6 5 5 5 4 4 4 3 3 3 3 2 2 2 2 1 1 1 1 0 0 -0 -0 -0 -1 -1 -1 -1 -1 -1 -1 -1 -1 -1 -1 -1 -2 -2 -2 -2 -2 -2 -2 -2 -3 -3 -3 -3 -3 -3 -3 -4 -4 -5 -5 -6 -6 -6 -6 -7 -7 -7 -7 -8 -8 -8 -8
6 6 5 5 5 4 4 4 3 3 3 3 2 2 2 2 1 1 1 0 0 0 -0 -0 -1 -1 -1 -1 -1 -1 -1 -1 -1 -1 -1 -1 -1 -2 -2 -2 -2 -2 -2 -2 -2 -3 -3 -3 -3 -3 -3 -3 -4 -4 -5 -5 -6 -6 -6 -6 -7 -7 -7 -7 -7 -8 -8 -8 -8
5 5 5 4 4 4 4 3 3 3 3 2 2 2 2 1 1 1 0 0 -0 -0 -1 -1 -1 -1 -1 -1 -1 -1 -1 -1 -1 -1 -1 -2 -2 -2 -2 -2 -2 -2 -3 -3 -3 -3 -3 -3 -3 -3 -3 -4 -4 -5 -5 -6 -6 -6 -7 -7 -7 -7 -7 -7 -8 -8 -8 -8 -8
5 5 4 4 4 3 3 3 3 3 2 2 2 1 1 1 0 0 0 -0 -0 -1 -1 -1 -1 -1 -1 -1 -1 -1 -1 -1 -1 -2 -2 -2 -2 -2 -2 -3 -3 -3 -3 -3 -3 -3 -3 -3 -3 -3 -3 -4 -4 -5 -5 -6 -6 -7 -7 -7 -7 -7 -7 -7 -8 -8 -8 -8 -8
4 4 4 4 3 3 3 3 2 2 2 2 1 1 1 0 0 -0 -0 -0 -1 -1 -1 -1 -1 -1 -1 -1 -1 -1 -1 -2 -2 -2 -2 -2 -2 -3 -3 -3 -3 -3 -3 -3 -3 -3 -3 -3 -3 -3 -4 -4 -5 -5 -6 -6 -7 -7 -7 -7 -7 -7 -7 -8 -8 -8 -8 -8 -8
4 3 3 3 3 3 3 2 2 2 1 1 1 1 0 0 -0 -0 -1 -1 -1 -1 -1 -1 -1 -1 -1 -1 -1 -2 -2 -2 -2 -2 -2 -3 -3 -3 -3 -3 -3 -3 -3 -3 -3 -3 -3 -3 -3 -4 -4 -4 -5 -6 -6 -7 -7 -7 -7 -7 -7 -7 -8 -8 -8 -8 -8 -8 -8
3 3 3 2 2 2 2 2 2 1 1 1 0 0 -0 -0 -0 -1 -1 -1 -1 -1 -1 -1 -1 -1 -1 -2 -2 -2 -2 -2 -2 -3 -3 -3 -3 -3 -3 -3 -3 -3 -3 -3 -3 -3 -3 -3 -3 -4 -4 -5 -5 -6 -7 -7 -7 -8 -8 -8 -8 -8 -8 -8 -8 -8 -8 -8 -8
Height
1457 1459 1461 1462 1463 1465 1466 1467 1469 1470 1472 1474 1475 1477 1479 1481 1482 1484 1486 1488 1490 1492 1493 1495 1495 1496 1497 1497 1498 1499 1499 1499 1500 1500 1500 1500 1500 1500 1500 1500 1500 1500 1499 1499 1498 1497 1497 1496 1496 1495 1495 1495 1494 1494 1493 1493 1492 1491 1491 1490 1490 1489 1488 1488 1487 1486 1485 1484 1483
1456 1458 1460 1461 1462 1463 1465 1466 1467 1469 1471 1473 1475 1476 1478 1480 1482 1484 1486 1488 1490 1491 1493 1494 1495 1495 1496 1497 1497 1498 1498 1499 1499 1499 1499 1500 1500 1500 1500 1500 1499 1499 1498 1497 1497 1496 1496 1495 1495 1495 1494 1494 1493 1492 1492 1491 1491 1490 1490 1489 1489 1488 1487 1486 1486 1485 1484 1483 1482
1455 1457 1458 1460 1461 1462 1464 1465 1466 1468 1470 1472 1474 1476 1477 1479 1481 1483 1485 1487 1489 1491 1492 1493 1494 1495 1495 1496 1496 1497 1497 1498 1498 1498 1498 1499 1499 1499 1499 1498 1498 1497 1497 1496 1496 1495 1495 1495 1494 1494 1493 1492 1492 1491 1491 1490 1490 1489 1489 1488 1487 1487 1486 1485 1485 1484 1483 1482 1481
1454 1455 1457 1459 1460 1462 1463 1464 1466 1468 1470 1471 1473 1475 1477 1479 1480 1483 1485 1487 1489 1490 1491 1492 1493 1494 1495 1495 1496 1496 1496 1497 1497 1497 1497 1498 1498 1498 1497 1497 1497 1496 1496 1495 1495 1495 1494 1494 1493 1492 1492 1491 1491 1490 1490 1489 1489 1488 1488 1487 1486 1486 1485 1484 1483 1483 1482 1481 1480
1453 1455 1457 1459 1460 1461 1463 1464 1466 1467 1469 1470 1472 1474 1476 1478 1480 1483 1485 1486 1488 1489 1490 1491 1492 1493 1494 1495 1495 1495 1495 1496 1496 1496 1496 1497 1497 1496 1496 1496 1495 1495 1495 1494 1494 1493 1493 1492 1492 1491 1491 1490 1490 1490 1489 1488 1488 1487 1486 1486 1485 1485 1484 1483 1482 1481 1480 1479 1478
1453 1455 1457 1458 1460 1461 1462 1464 1465 1466 1468 1470 1472 1474 1475 1478 1480 1482 1484 1486 1487 1489 1490 1491 1492 1492 1493 1494 1494 1494 1495 1495 1495 1495 1495 1495 1495 1495 1495 1495 1495 1494 1494 1493 1493 1492 1492 1491 1491 1490 1490 1489 1489 1488 1488 1487 1487 1486 1485 1485 1484 1483 1483 1482 1481 1480 1479 1478 1477
1452 1454 1456 1457 1459 1460 1461 1463 1464 1466 1468 1470 1472 1474 1475 1478 1480 1482 1484 1485 1486 1488 1489 1490 1491 1491 1492 1493 1493 1493 1494 1494 1494 1494 1495 1495 1495 1494 1494 1494 1493 1493 1493 1492 1492 1491 1491 1490 1490 1489 1489 1488 1488 1487 1487 1486 1486 1485 1484 1483 1483 1482 1481 1480 1480 1479 1478 1477 1476
1451 1453 1455 1456 1458 1459 1460 1462 1464 1466 1468 1470 1472 1474 1475 1478 1480 1481 1483 1485 1486 1487 1488 1489 1490 1491 1491 1492 1492 1492 1493 1493 1493 1493 1493 1494 1493 1493 1493 1493 1492 1492 1491 1491 1490 1490 1490 1489 1489 1488 1488 1487 1487 1486 1486 1485 1485 1484 1483 1482 1481 1480 1480 1479 1478 1477 1476 1475 1475
1451 1452 1454 1455 1457 1459 1460 1462 1464 1465 1468 1470 1471 1474 1476 1478 1479 1481 1482 1484 1485 1486 1487 1488 1489 1490 1490 1490 1491 1491 1491 1492 1492 1492 1492 1492 1492 1492 1492 1491 1491 1491 1490 1490 1490 1489 1489 1488 1488 1487 1487 1486 1486 1485 1485 1484 1484 1483 1482 1481 1480 1479 1478 1477 1476 1475 1475 1474 1473
1450 1451 1453 1455 1456 1458 1460 1462 1464 1466 1467 1469 1471 1473 1475 1477 1479 1480 1482 1483 1484 1485 1486 1487 1488 1489 1489 1490 1490 1490 1490 1491 1491 1491 1491 1491 1491 1491 1491 1490 1490 1490 1489 1489 1488 1488 1488 1487 1487 1486 1486 1485 1485 1484 1484 1483 1482 1482 1481 1480 1479 1478 1477 1476 1475 1474 1473 1472 1471
1449 1451 1452 1454 1455 1457 1459 1461 1463 1465 1467 1469 1471 1473 1475 1477 1478 1480 1481 1482 1484 1485 1485 1486 1487 1488 1488 1489 1489 1489 1490 1490 1490 1490 1490 1490 1490 1490 1490 1490 1489 1489 1488 1488 1487 1487 1486 1486 1485 1485 1485 1484 1484 1483 1482 1482 1481 1480 1480 1479 1478 1477 1476 1475 1474 1473 1472 1471 1470
1449 1450 1452 1454 1455 1457 1459 1461 1463 1465 1467 1469 1471 1473 1475 1476 1478 1479 1480 1482 1483 1484 1485 1485 1486 1487 1487 1487 1488 1488 1489 1489 1489 1489 1489 1489 1489 1489 1489 1488 1488 1488 1487 1487 1486 1486 1485 1485 1485 1484 1483 1483 1482 1482 1481 1480 1480 1479 1478 1477 1476 1475 1475 1473 1472 1471 1470 1470 1469
1448 1450 1452 1453 1455 1456 1458 1460 1462 1465 1467 1469 1470 1472 1474 1475 1477 1478 1480 1481 1482 1483 1484 1484 1485 1485 1486 1486 1487 1487 1488 1488 1488 1488 1488 1488 1488 1488 1488 1487 1487 1487 1486 1486 1485 1485 1485 1484 1484 1483 1482 1482 1481 1480 1480 1479 1479 1478 1477 1476 1475 1474 1473 1472 1471 1470 1469 1468 1467
1448 1450 1451 1452 1454 1456 1458 1460 1462 1465 1466 1469 1470 1472 1474 1475 1476 1478 1479 1480 1481 1482 1483 1483 1484 1485 1485 1485 1486 1486 1487 1487 1487 1487 1487 1487 1487 1487 1487 1486 1486 1485 1485 1485 1484 1484 1484 1483 1482 1482 1481 1481 1480 1479 1479 1478 1477 1476 1475 1475 1474 1473 1472 1471 1470 1469 1468 1466 1465
1447 1449 1450 1452 1454 1456 1458 1460 1462 1465 1466 1468 1470 1471 1473 1474 1475 1477 1478 1479 1480 1481 1481 1482 1483 1484 1484 1485 1485 1485 1486 1486 1486 1486 1486 1486 1486 1486 1486 1485 1485 1485 1484 1484 1483 1483 1482 1482 1481 1481 1480 1480 1479 1478 1477 1476 1476 1475 1474 1473 1472 1471 1470 1469 1468 1467 1466 1465 1464
1447 1449 1450 1452 1454 1456 1458 1460 1462 1464 1466 1468 1470 1471 1472 1474 1475 1476 1477 1478 1479 1480 1480 1481 1482 1482 1483 1484 1484 1485 1485 1485 1485 1485 1485 1485 1485 1485 1485 1484 1484 1484 1483 1483 1482 1482 1481 1481 1480 1480 1479 1478 1478 1477 1476 1475 1474 1473 1473 1472 1471 1470 1469 1468 1467 1466 1465 1464 1462
1447 1449 1450 1452 1454 1456 1458 1460 1462 1464 1466 1468 1470 1471 1472 1473 1475 1475 1476 1477 1478 1479 1480 1480 1481 1482 1482 1483 1484 1484 1484 1485 1485 1485 1485 1485 1484 1484 1484 1483 1483 1482 1482 1481 1481 1480 1480 1479 1479 1478 1478 1477 1476 1475 1475 1474 1473 1472 1471 1470 1469 1468 1467 1466 1465 1464 1463 1462 1461
1447 1449 1451 1453 1455 1457 1459 1461 1463 1464 1466 1468 1469 1470 1472 1473 1474 1475 1476 1476 1477 1478 1479 1479 1480 1481 1481 1482 1483 1483 1484 1484 1484 1484 1484 1484 1483 1483 1483 1482 1482 1481 1481 1480 1480 1479 1479 1478 1477 1477 1476 1475 1475 1474 1473 1472 1472 1471 1470 1469 1468 1467 1466 1465 1464 1463 1461 1460 1459
1447 1449 1451 1453 1455 1457 1459 1461 1463 1465 1466 1468 1469 1470 1471 1473 1473 1474 1475 1476 1476 1477 1478 1479 1479 1480 1481 1481 1482 1482 1483 1483 1483 1483 1483 1483 1482 1482 1482 1481 1481 1480 1480 1479 1479 1478 1477 1477 1476 1475 1475 1474 1473 1472 1472 1471 1470 1469 1468 1467 1466 1465 1464 1463 1462 1461 1460 1459 1457
1447 1449 1451 1453 1455 1458 1460 1461 1463 1465 1466 1468 1469 1470 1471 1472 1473 1474 1474 1475 1475 1476 1477 1478 1479 1479 1480 1481 1481 1481 1482 1482 1482 1482 1482 1482 1481 1481 1481 1480 1480 1479 1479 1478 1477 1477 1476 1475 1475 1474 1473 1473 1472 1471 1470 1470 1469 1468 1467 1466 1465 1464 1462 1461 1460 1459 1458 1457 1456
1448 1450 1452 1454 1456 1458 1460 1462 1464 1465 1466 1468 1469 1470 1471 1472 1472 1473 1474 1475 1475 1476 1476 1477 1478 1479 1479 1480 1480 1480 1481 1481 1481 1481 1481 1481 1480 1480 1480 1479 1479 1478 1478 1477 1476 1475 1475 1474 1473 1473 1472 1471 1470 1470 1469 1468 1467 1466 1465 1464 1463 1462 1461 1460 1459 1457 1456 1455 1454
1448 1450 1452 1454 1456 1458 1460 1462 1464 1465 1466 1467 1469 1470 1470 1471 1472 1473 1473 1474 1475 1475 1476 1477 1477 1478 1479 1479 1480 1480 1480 1480 1480 1480 1480 1480 1480 1479 1479 1478 1478 1477 1476 1475 1475 1474 1473 1473 1472 1471 1470 1470 1469 1468 1467 1466 1465 1465 1464 1463 1462 1460 1459 1458 1457 1456 1455 1453 1452
1448 1450 1452 1455 1457 1459 1460 1462 1464 1465 1466 1467 1468 1469 1470 1471 1471 1472 1473 1473 1474 1475 1475 1476 1477 1477 1478 1478 1479 1479 1479 1479 1479 1479 1479 1479 1479 1478 1478 1477 1477 1476 1475 1475 1474 1473 1472 1471 1470 1470 1469 1468 1467 1466 1465 1465 1464 1463 1462 1461 1460 1459 1458 1457 1455 1454 1453 1452 1450
1448 1450 1453 1455 1457 1459 1461 1462 1464 1465 1466 1467 1468 1469 1470 1470 1471 1472 1472 1473 1474 1474 1475 1475 1476 1477 1477 1477 1478 1478 1478 1478 1478 1478 1478 1478 1477 1477 1477 1476 1475 1475 1474 1473 1473 1472 1471 1470 1470 1469 1468 1467 1466 1465 1464 1463 1462 1461 1460 1460 1458 1457 1456 1455 1454 1453 1451 1450 1449
1449 1451 1454 1455 1457 1459 1461 1462 1463 1465 1465 1467 1468 1468 1469 1470 1470 1471 1472 1473 1473 1474 1475 1475 1475 1476 1476 1477 1477 1477 1477 1477 1477 1477 1477 1477 1476 1476 1475 1475 1474 1474 1473 1472 1472 1471 1470 1469 1469 1468 1467 1466 1465 1464 1463 1462 1461 1460 1459 1458 1457 1455 1454 1453 1452 1451 1450 1449 1447
1450 1452 1454 1456 1458 1459 1460 1462 1463 1464 1465 1466 1467 1468 1469 1470 1470 1471 1472 1472 1473 1473 1474 1475 1475 1475 1476 1476 1476 1476 1476 1476 1476 1476 1476 1475 1475 1475 1474 1474 1473 1473 1472 1471 1470 1470 1469 1468 1467 1466 1465 1465 1464 1463 1461 1460 1460 1458 1457 1456 1455 1453 1452 1451 1450 1449 1448 1447 1445
1450 1453 1454 1456 1458 1459 1460 1462 1463 1464 1465 1466 1467 1468 1469 1469 1470 1471 1471 1472 1472 1473 1473 1474 1474 1475 1475 1475 1475 1475 1475 1475 1475 1475 1475 1475 1474 1474 1473 1473 1472 1471 1471 1470 1469 1469 1468 1467 1466 1465 1464 1463 1462 1461 1460 1459 1458 1456 1455 1454 1453 1451 1450 1449 1448 1447 1446 1445 1444
1451 1453 1454 1456 1457 1459 1460 1461 1463 1464 1465 1466 1467 1467 1468 1469 1470 1470 1471 1472 1472 1472 1473 1473 1474 1474 1474 1475 1475 1475 1475 1475 1474 1474 1474 1474 1473 1473 1472 1472 1471 1470 1470 1469 1468 1467 1466 1465 1464 1463 1462 1461 1460 1459 1458 1457 1456 1455 1454 1453 1451 1450 1449 1448 1447 1445 1444 1443 1442
1451 1453 1454 1455 1457 1458 1460 1461 1462 1463 1465 1465 1466 1467 1468 1469 1470 1470 1471 1471 1472 1472 1472 1473 1473 1473 1474 1474 1474 1474 1474 1474 1473 1473 1473 1473 1472 1472 1471 1471 1470 1469 1469 1468 1467 1466 1465 1464 1463 1462 1461 1460 1459 1458 1457 1456 1455 1453 1452 1451 1450 1449 1448 1446 1445 1444 1443 1441 1440
1451 1453 1454 1455 1457 1458 1460 1461 1462 1463 1465 1465 1466 1467 1468 1469 1470 1470 1470 1471 1471 1471 1472 1472 1472 1473 1473 1473 1473 1473 1473 1473 1473 1472 1472 1471 1471 1470 1470 1470 1469 1468 1467 1466 1465 1465 1464 1462 1461 1460 1460 1458 1457 1456 1455 1454 1453 1452 1450 1449 1448 1447 1446 1445 1444 1442 1441 1440 1439
1451 1452 1454 1455 1457 1458 1460 1461 1462 1463 1465 1465 1466 1467 1468 1469 1469 1470 1470 1470 1471 1471 1471 1471 1472 1472 1472 1472 1472 1472 1472 1472 1472 1471 1471 1470 1470 1470 1469 1468 1468 1467 1466 1465 1464 1463 1462 1461 1460 1459 1458 1457 1456 1455 1454 1453 1451 1450 1449 1448 1446 1445 1444 1443 1442 1440 1440 1438 1437
1451 1452 1454 1455 1457 1458 1460 1461 1462 1463 1465 1465 1466 1467 1468 1468 1469 1469 1470 1470 1470 1470 1471 1471 1471 1471 1471 1471 1471 1471 1471 1471 1471 1470 1470 1470 1469 1468 1468 1467 1466 1465 1465 1464 1463 1462 1460 1460 1458 1457 1456 1455 1454 1453 1452 1451 1450 1449 1447 1446 1445 1444 1442 1441 1440 1439 1438 1437 1436
1451 1453 1454 1456 1457 1459 1460 1461 1462 1464 1465 1465 1466 1467 1468 1468 1469 1469 1469 1470 1470 1470 1470 1470 1470 1470 1470 1471 1471 1470 1470 1470 1470 1470 1469 1469 1468 1467 1466 1465 1465 1464 1463 1462 1461 1460 1459 1458 1457 1456 1455 1453 1452 1451 1450 1449 1448 1447 1445 1444 1443 1442 1441 1440 1439 1438 1436 1435 1435
1451 1453 1455 1456 1458 1459 1460 1461 1463 1464 1465 1465 1466 1467 1467 1468 1468 1469 1469 1469 1469 1469 1470 1470 1470 1470 1470 1470 1470 1470 1470 1469 1469 1468 1468 1467 1467 1466 1465 1464 1463 1462 1462 1461 1460 1459 1458 1456 1455 1454 1453 1452 1450 1449 1448 1447 1446 1445 1444 1443 1442 1440 1440 1438 1437 1436 1435 1434 1433
1452 1454 1455 1456 1458 1459 1460 1462 1463 1464 1465 1465 1466 1466 1467 1467 1468 1468 1468 1468 1469 1469 1469 1469 1469 1469 1469 1469 1469 1469 1469 1468 1468 1467 1467 1466 1465 1465 1464 1463 1462 1461 1460 1459 1458 1457 1456 1455 1454 1452 1451 1450 1449 1448 1447 1446 1445 1444 1442 1441 1440 1439 1438 1437 1436 1435 1434 1433 1432
1453 1454 1455 1457 1458 1460 1461 1462 1463 1464 1465 1465 1466 1466 1466 1467 1467 1467 1468 1468 1468 1468 1468 1468 1468 1468 1468 1468 1468 1468 1467 1467 1467 1466 1465 1465 1464 1464 1463 1461 1460 1460 1459 1458 1457 1455 1455 1453 1452 1451 1450 1448 1447 1446 1445 1444 1443 1442 1441 1440 1439 1438 1437 1436 1435 1434 1433 1432 1431
1453 1455 1456 1457 1459 1460 1461 1462 1463 1464 1464 1465 1465 1466 1466 1466 1467 1467 1467 1467 1468 1468 1468 1468 1468 1468 1468 1467 1467 1467 1466 1466 1465 1465 1464 1464 1463 1462 1461 1460 1459 1458 1457 1456 1455 1454 1453 1452 1450 1449 1448 1447 1445 1445 1444 1443 1442 1440 1440 1439 1437 1436 1435 1435 1434 1433 1431 1430 1429
1454 1455 1457 1458 1459 1460 1461 1462 1463 1464 1464 1465 1465 1465 1466 1466 1466 1466 1467 1467 1467 1467 1467 1467 1467 1467 1467 1467 1466 1466 1465 1465 1465 1464 1463 1462 1461 1460 1460 1459 1458 1456 1455 1455 1454 1452 1451 1450 1449 1448 1446 1445 1444 1443 1442 1441 1440 1439 1438 1437 1436 1435 1434 1433 1432 1431 1430 1429 1427
1455 1456 1457 1459 1460 1460 1461 1462 1463 1463 1464 1464 1465 1465 1465 1466 1466 1466 1466 1466 1466 1466 1467 1467 1466 1466 1466 1466 1465 1465 1464 1464 1463 1462 1462 1461 1460 1459 1458 1457 1456 1455 1454 1453 1452 1451 1450 1449 1447 1446 1445 1444 1442 1441 1440 1440 1439 1438 1437 1436 1435 1434 1433 1432 1431 1429 1428 1427 1426
1455 1457 1458 1459 1460 1460 1461 1462 1462 1463 1463 1464 1464 1465 1465 1465 1465 1465 1465 1466 1466 1466 1466 1466 1466 1465 1465 1465 1464 1464 1463 1462 1462 1461 1460 1459 1458 1457 1456 1456 1455 1454 1452 1451 1450 1450 1448 1447 1446 1444 1443 1442 1441 1440 1439 1438 1437 1436 1435 1435 1434 1433 1432 1430 1429 1428 1427 1425 1425
1455 1457 1458 1459 1460 1460 1461 1461 1462 1463 1463 1464 1464 1464 1465 1465 1465 1465 1465 1465 1465 1465 1465 1465 1465 1465 1464 1464 1463 1463 1462 1461 1460 1460 1459 1458 1457 1456 1455 1454 1453 1452 1451 1450 1449 1448 1447 1445 1444 1443 1441 1440 1439 1438 1437 1437 1436 1435 1434 1433 1433 1431 1430 1429 1427 1426 1425 1425 1424
Wind_Speed
31 32 33 33 33 31 29 28 28 29 29 29 31 32 32 30 28 27 29 31 29 27 23 21 18 16 13 11 9 8 6 5 5 4 5 5 6 8 9 10 11 11 12 13 13 14 14 15 15 14 14 14 13 13 13 13 13 14 14 14 15 15 16 17 18 18 19 20 21
31 33 34 34 33 31 29 29 29 30 30 31 32 33 32 28 27 28 30 30 28 25 22 19 17 15 12 10 9 7 6 5 5 5 5 6 7 8 9 10 11 11 12 13 13 14 14 14 14 14 14 14 13 13 13 13 13 14 14 15 16 16 17 17 18 19 20 21 21
31 33 34 34 32 29 28 28 28 29 31 32 33 33 30 27 27 29 31 29 26 23 21 18 16 14 12 10 8 7 6 5 5 5 5 6 7 8 9 10 11 11 12 13 13 14 14 14 14 14 13 13 13 13 13 14 14 14 15 15 16 17 17 18 19 19 20 21 22
32 33 33 31 28 26 25 25 26 28 31 32 33 31 28 27 29 30 30 27 24 22 20 17 15 13 11 9 8 7 6 5 5 5 6 7 7 8 9 10 11 11 12 13 13 13 14 14 13 13 13 13 13 13 13 14 14 15 15 16 16 17 18 19 19 20 21 22 22
32 32 29 26 23 22 22 23 25 27 30 32 31 29 27 28 30 31 29 26 23 21 19 16 14 12 11 9 8 7 6 5 5 6 6 7 8 8 9 10 11 11 12 13 13 13 13 13 13 13 12 12 12 13 13 14 15 15 16 17 17 18 18 19 20 20 21 22 23
31 29 26 23 21 21 23 24 26 27 29 30 28 27 28 30 31 30 28 25 22 20 18 15 13 12 10 9 8 7 6 6 6 6 6 7 8 9 9 10 11 11 12 12 13 13 13 13 13 12 12 12 13 13 14 14 15 16 17 17 18 18 19 20 20 21 22 22 23
29 27 25 24 23 23 24 25 27 28 29 28 27 28 30 32 31 29 26 24 21 19 17 15 13 12 10 9 8 7 6 6 6 6 7 7 8 9 9 10 11 11 12 12 13 13 13 13 12 12 12 13 13 13 14 14 15 16 17 18 19 19 20 20 21 22 22 23 23
28 27 26 26 25 24 24 25 27 28 28 28 29 30 32 32 30 28 25 22 20 18 16 14 13 11 10 9 8 7 7 6 6 6 7 7 8 9 9 10 11 11 12 12 12 12 12 12 12 12 12 13 13 14 15 15 16 16 17 18 19 20 21 21 22 22 23 23 24
29 28 27 27 25 24 24 25 26 27 28 29 31 32 32 31 28 26 23 21 19 17 15 14 13 12 10 9 8 7 7 6 6 6 7 7 8 9 9 10 11 11 12 12 12 12 12 12 12 12 13 13 14 15 15 16 16 17 18 18 19 20 21 22 23 23 24 24 24
29 28 28 27 26 25 25 25 27 28 30 31 32 32 31 29 26 24 22 20 18 16 15 14 13 11 10 9 8 7 7 6 6 7 7 7 8 9 9 10 10 11 11 12 12 12 12 12 12 13 13 14 14 15 16 16 17 18 18 19 20 20 21 22 23 24 24 25 25
28 28 27 26 26 26 26 27 29 30 32 33 33 32 30 27 25 23 21 19 18 16 15 14 13 11 10 9 8 7 7 6 6 7 7 7 8 8 9 10 10 11 11 11 12 12 12 12 12 13 14 14 15 16 16 17 17 18 19 20 20 21 22 23 23 24 25 25 25
26 26 26 25 26 27 28 30 31 32 33 33 33 31 29 26 24 22 20 19 17 16 15 14 12 11 10 9 8 7 7 6 6 6 7 7 8 8 9 9 10 10 11 11 11 12 12 12 13 13 14 15 16 16 17 18 18 19 19 20 21 22 22 23 24 24 25 25 26
25 26 26 25 26 28 30 31 33 34 34 33 32 30 28 26 23 22 20 18 17 16 15 14 12 11 10 9 8 7 7 6 6 6 6 7 7 8 9 9 10 10 11 11 11 12 12 12 13 14 15 16 16 17 18 18 19 19 20 21 21 22 23 23 24 25 25 26 26
26 26 26 27 28 30 32 33 34 34 34 32 31 29 27 25 23 21 20 18 17 16 15 13 12 11 10 8 8 7 6 6 6 6 6 7 7 8 8 9 9 10 11 11 11 12 12 13 14 14 15 16 17 18 18 19 19 20 20 21 22 22 23 24 24 25 25 26 26
27 27 27 28 30 32 33 34 34 34 33 31 30 28 26 24 23 21 19 18 17 16 14 13 12 10 9 8 7 7 6 5 5 5 6 6 7 8 8 9 9 10 11 11 12 12 13 13 14 15 16 16 17 18 19 19 20 20 21 21 22 23 23 24 25 25 26 26 27
27 28 29 30 32 33 34 35 35 34 32 30 28 27 25 23 22 20 19 18 17 15 14 13 11 10 9 8 7 6 5 5 5 5 5 6 7 8 8 9 9 10 11 12 12 13 14 14 15 15 16 17 18 18 19 20 20 21 21 22 23 23 24 24 25 26 26 27 27
28 29 30 31 33 34 35 35 34 33 31 29 27 25 24 22 21 20 19 18 16 15 14 12 11 10 8 7 7 6 5 4 5 5 5 6 7 7 8 9 10 10 11 12 13 14 15 15 16 16 17 17 18 19 19 20 21 21 22 23 23 24 24 25 26 26 27 27 27
29 30 31 33 34 35 35 34 33 31 29 28 26 24 23 22 20 19 18 17 16 14 13 12 10 9 8 7 6 5 4 4 4 5 5 6 7 7 8 9 10 11 12 13 14 14 15 16 17 17 18 18 19 19 20 20 21 22 22 23 24 24 25 25 26 27 27 28 28
30 31 33 34 35 35 34 33 31 30 28 26 24 23 22 21 20 19 18 17 15 14 12 11 10 9 7 6 5 4 4 4 4 5 6 6 7 7 8 9 10 11 12 13 14 15 16 17 18 18 19 19 20 20 21 21 21 22 23 23 24 25 25 26 26 27 28 28 28
31 33 34 35 35 35 33 31 29 28 26 24 23 22 21 20 19 18 17 16 15 13 12 10 9 8 6 5 4 4 3 4 4 5 6 6 7 8 9 10 11 12 13 14 15 16 17 17 18 19 19 20 20 21 21 22 22 23 23 24 25 26 26 27 27 28 28 28 29
33 34 35 35 35 34 32 30 28 26 24 23 22 22 21 20 19 17 16 15 14 12 11 10 8 6 5 4 3 3 3 4 4 5 6 6 7 8 9 10 11 12 14 14 15 16 17 18 19 19 20 20 21 21 22 22 22 23 24 24 25 26 27 27 28 28 29 29 29
34 35 35 35 34 32 30 28 26 25 23 22 22 21 20 19 18 17 15 14 13 11 10 9 7 6 4 3 3 3 3 4 5 5 6 7 7 8 9 11 12 13 14 15 16 17 18 19 19 20 21 22 22 22 23 23 23 24 24 25 25 26 27 27 28 29 29 29 29
35 35 35 35 33 31 28 26 25 23 22 22 21 20 19 18 17 16 15 14 12 10 9 7 6 5 3 3 3 3 4 4 5 6 6 7 8 9 10 11 12 13 15 16 17 18 18 19 20 21 21 22 22 23 24 24 24 25 25 25 26 26 27 27 28 28 29 29 29
35 35 35 33 31 29 27 25 24 23 22 21 20 20 19 18 17 16 14 13 11 9 8 6 5 4 3 2 3 3 4 4 5 6 7 7 8 10 11 12 13 14 15 16 17 18 19 19 20 20 21 21 21 22 23 24 25 25 26 26 26 27 27 28 28 28 29 29 28
35 35 33 31 29 27 25 24 23 22 21 21 20 19 18 17 16 15 13 11 10 8 7 5 4 3 2 2 3 3 4 5 5 6 7 8 9 10 12 13 14 15 16 17 18 18 19 19 20 20 20 21 21 21 22 23 25 26 26 27 27 28 28 29 29 29 28 28 27
34 33 32 30 28 26 25 23 22 22 21 20 19 18 17 16 15 13 12 10 8 7 5 4 3 2 2 2 3 4 4 5 6 7 8 9 10 11 12 13 14 16 17 17 18 19 19 20 20 20 21 21 22 22 23 23 24 25 27 28 28 29 29 29 29 29 29 28 27
33 32 30 28 27 25 24 23 22 21 21 20 19 18 17 15 14 12 10 9 7 6 4 3 2 2 2 3 3 4 5 5 6 7 8 10 11 12 13 14 15 16 17 18 19 19 20 20 20 21 21 22 22 23 24 24 25 26 27 28 28 28 28 28 29 29 28 27 26
32 31 29 28 26 25 24 23 22 21 20 19 18 17 16 14 13 11 9 8 6 4 3 3 2 2 2 3 3 4 5 6 7 8 9 10 11 13 14 15 16 17 18 18 19 19 20 20 21 21 21 22 23 23 24 24 25 26 26 27 27 28 28 28 28 28 27 26 24
31 30 28 27 26 25 24 23 22 21 20 18 17 16 14 13 11 9 8 6 5 4 3 2 2 2 3 3 4 4 5 6 7 9 10 11 12 14 15 16 17 18 18 19 19 20 20 21 21 22 22 23 23 24 24 24 25 25 26 27 27 27 27 27 27 26 25 24 22
30 29 28 26 25 24 23 22 21 20 19 17 16 15 13 11 10 8 7 5 4 3 3 2 2 2 3 3 4 5 6 7 8 9 11 12 13 14 16 16 17 18 19 19 20 20 21 21 22 22 22 23 24 24 24 24 25 25 26 27 27 27 27 27 26 25 23 22 20
30 29 27 26 25 24 23 21 20 19 18 16 15 13 12 10 9 7 6 5 4 3 3 2 3 3 3 4 5 5 7 8 9 10 11 13 14 15 16 17 18 19 19 20 20 21 21 22 22 23 23 24 24 25 25 25 25 25 26 26 27 27 26 26 25 23 22 20 18
29 28 27 25 24 23 22 20 19 18 16 15 13 12 10 9 8 6 5 4 3 3 3 3 3 3 4 4 5 6 7 9 10 11 12 14 15 16 17 18 19 19 20 20 21 21 22 22 23 23 24 24 25 25 25 25 25 25 25 25 25 25 25 24 23 22 20 18 17
28 27 25 24 23 22 21 20 18 17 15 14 12 10 9 8 7 6 4 4 3 3 3 3 4 4 5 5 6 7 8 9 11 12 13 14 16 17 18 19 19 20 20 21 21 22 22 23 23 24 24 25 26 26 26 25 24 24 24 24 24 23 22 22 22 21 20 18 17
27 25 24 23 22 21 20 19 17 15 14 12 11 9 8 7 6 5 4 3 3 3 3 3 4 4 5 6 7 8 9 11 12 13 14 15 17 18 19 19 20 20 21 21 22 22 23 23 24 25 25 26 27 26 25 24 23 23 23 23 22 21 20 20 20 20 19 18 17
25 24 23 22 21 20 18 17 15 14 12 11 10 9 8 6 5 4 4 3 3 3 3 3 4 5 6 7 8 9 10 12 13 14 15 16 17 18 19 20 20 21 21 22 22 23 23 24 24 25 26 27 27 26 24 23 22 22 22 21 20 19 18 18 19 18 18 17 17
23 22 21 20 19 18 17 15 13 12 10 10 9 8 7 6 5 4 3 3 3 3 3 3 4 5 7 8 9 10 11 13 14 15 16 17 18 19 19 20 21 21 22 22 23 23 24 24 25 26 27 27 26 25 23 21 20 20 20 19 18 18 17 17 17 17 17 16 17
21 20 20 19 17 16 14 13 11 10 9 9 8 7 6 5 4 4 3 3 3 3 4 4 5 6 7 9 10 11 12 14 15 16 17 18 19 19 20 21 21 22 22 23 23 24 24 25 26 27 27 27 26 24 22 20 19 19 18 18 17 17 16 16 16 16 16 17 18
20 18 17 16 15 14 12 11 10 9 9 9 8 7 5 4 4 4 3 2 3 4 5 5 6 7 8 10 11 12 13 15 16 17 18 19 19 20 20 21 22 22 23 23 24 25 25 26 26 27 27 27 25 24 21 20 18 18 17 17 17 16 15 15 15 17 18 18 19
18 17 15 14 13 12 11 10 10 9 9 8 7 6 5 4 4 3 3 3 3 4 5 6 7 8 9 10 12 13 15 16 17 17 18 19 20 20 21 21 22 23 24 24 25 25 26 26 27 27 27 26 24 22 20 19 18 17 17 16 16 15 15 15 17 18 20 19 20
17 15 14 12 11 11 10 10 9 9 8 7 6 5 4 4 3 3 3 3 4 5 6 7 8 9 10 11 13 14 16 17 17 18 19 20 20 21 21 22 23 23 24 25 25 26 26 27 27 27 26 25 23 21 19 17 17 16 16 15 15 15 15 17 19 20 20 20 20
15 14 13 12 10 10 9 9 9 8 7 6 5 5 4 3 3 3 4 4 5 6 6 7 9 10 11 12 13 15 16 17 18 19 19 20 21 22 22 23 23 24 25 26 26 27 27 27 27 27 26 24 22 19 17 16 16 15 15 15 15 15 17 19 20 20 20 20 19
Wind_Direction
216 216 216 214 210 206 204 204 203 201 198 196 194 193 193 192 192 191 189 189 190 192 192 192 192 192 193 195 198 205 214 226 239 258 274 286 294 301 307 313 320 326 332 336 338 338 337 336 336 335 334 333 333 332 332 333 333 334 334 335 335 335 334 334 333 332 332 331 330
215 216 216 213 209 207 207 207 205 200 195 192 191 192 193 193 191 189 188 188 190 191 191 191 191 192 193 195 200 207 217 229 243 260 275 285 294 301 308 315 321 327 332 335 336 336 336 335 334 333 333 332 332 332 332 333 334 334 333 333 333 332 332 331 331 330 330 329 328
215 215 214 211 210 210 210 207 201 195 191 190 191 192 193 192 189 187 187 188 189 190 191 191 191 192 193 197 203 211 221 233 248 263 275 285 294 302 310 317 323 328 332 335 335 335 334 333 333 333 332 332 332 332 333 332 333 333 332 331 330 330 329 329 329 328 328 328 327
214 213 211 209 210 211 207 199 193 189 189 191 192 193 191 188 185 185 186 187 188 189 190 191 191 192 194 199 206 215 224 237 251 264 275 285 294 303 311 318 324 328 331 333 334 333 333 332 332 332 332 332 332 332 331 331 331 330 329 328 328 328 328 327 327 327 327 327 326
211 209 207 205 206 203 195 188 186 188 191 192 192 191 187 184 183 184 186 187 188 188 189 191 192 194 197 202 210 218 228 240 253 265 276 286 296 305 313 319 324 328 331 332 332 332 332 331 332 331 332 331 331 330 329 329 329 327 326 325 326 326 326 326 326 326 326 326 326
206 202 198 196 194 190 186 186 188 191 192 192 190 186 182 181 182 184 187 188 188 188 189 190 192 196 200 206 213 221 231 242 254 266 277 288 298 307 314 320 324 328 330 331 332 331 331 331 331 331 330 330 329 328 328 328 327 326 325 324 324 325 325 325 325 325 325 326 326
200 194 188 187 186 185 186 189 191 192 191 188 185 181 179 180 183 185 188 189 189 189 190 191 194 198 204 209 216 224 234 244 256 267 279 290 299 307 314 320 324 327 329 331 331 331 331 331 330 330 329 329 328 327 326 326 325 324 323 323 323 324 324 324 324 325 325 325 325
195 190 187 186 184 186 190 193 193 190 186 183 180 179 179 181 184 186 188 189 190 191 192 194 197 201 206 212 218 226 235 246 258 269 281 291 301 308 315 320 325 327 329 330 330 331 330 330 329 329 327 327 326 325 324 324 323 323 322 322 322 323 324 324 324 324 324 324 324
193 192 191 189 186 188 192 193 190 185 181 179 177 178 180 183 185 187 189 190 191 192 194 196 200 204 209 214 221 228 238 248 259 271 282 293 302 310 316 321 325 327 329 329 330 330 329 329 328 327 326 325 324 323 322 322 322 321 321 321 322 323 323 324 324 324 324 324 324
194 195 194 190 188 189 190 187 183 179 178 177 177 178 181 184 186 188 189 190 192 194 196 199 203 207 211 216 222 230 239 250 261 273 285 295 304 311 317 322 325 327 328 328 329 329 328 327 326 325 324 323 322 322 321 321 321 321 321 321 321 322 323 323 323 323 323 323 323
198 196 193 189 188 186 183 179 177 177 177 177 178 180 182 185 187 188 190 192 193 195 198 202 206 209 213 218 223 231 240 251 263 275 286 297 306 313 319 322 325 326 327 327 328 328 327 325 324 323 322 322 321 321 321 321 321 321 321 321 321 322 322 322 322 322 322 322 322
199 194 189 186 183 179 176 175 175 176 177 178 179 181 183 185 187 188 190 192 194 197 200 204 207 211 215 219 225 232 242 252 264 277 289 300 309 315 320 323 325 326 327 327 327 326 325 324 323 322 321 321 321 321 320 320 321 321 321 321 322 322 322 322 322 321 321 321 321
192 187 182 179 175 173 172 174 175 176 177 179 181 183 184 185 187 188 191 193 197 200 203 206 209 212 215 219 226 233 242 254 267 281 293 303 311 316 321 323 325 326 327 326 326 325 324 323 322 322 321 321 321 320 320 321 321 321 321 321 321 321 321 321 321 321 321 321 321
183 180 177 173 171 171 173 174 176 177 179 181 182 184 184 185 187 189 192 196 199 201 204 207 210 212 215 220 226 234 245 257 271 285 297 306 313 318 322 324 326 326 326 325 324 324 323 322 322 321 321 320 320 320 320 321 321 321 321 321 321 320 320 320 320 320 320 321 321
178 175 172 170 170 172 174 175 177 178 180 182 184 185 186 187 189 191 194 197 200 203 205 208 210 212 215 220 227 236 247 261 275 290 302 311 316 321 324 326 327 326 326 325 324 323 322 321 321 321 321 321 320 320 320 321 321 321 320 320 320 320 320 320 320 320 320 321 321
174 172 171 171 171 173 175 177 179 180 182 183 185 186 188 189 191 193 196 198 200 203 205 207 210 212 216 220 227 238 250 265 281 295 307 315 320 323 326 326 327 326 325 324 323 322 322 322 321 321 321 321 321 321 321 321 321 320 320 320 320 320 320 320 320 320 320 321 321
172 171 171 172 173 175 176 179 180 182 183 185 187 188 190 192 194 196 197 199 201 203 205 207 210 213 216 222 229 239 253 270 288 302 312 319 323 325 326 326 325 325 324 323 323 323 322 322 322 322 322 322 322 321 321 321 320 320 320 320 320 320 320 320 320 321 321 321 322
172 172 172 173 175 176 178 180 182 184 185 186 188 190 192 194 196 197 198 200 201 203 204 207 209 213 217 223 232 243 258 278 297 309 317 322 325 326 325 325 324 324 324 323 323 323 323 323 323 323 323 323 322 322 321 320 320 320 320 320 320 320 320 320 321 321 322 322 322
172 172 173 174 176 178 180 182 184 185 187 188 190 192 193 195 197 198 199 199 200 202 204 206 209 213 218 224 235 249 268 288 306 315 320 324 325 325 325 324 324 323 324 324 324 324 324 324 324 324 324 323 322 321 321 320 320 320 320 321 320 321 321 321 321 321 322 322 322
172 173 174 175 177 179 182 184 185 187 188 190 192 193 194 195 197 198 199 199 201 202 204 206 209 213 218 227 240 259 280 299 313 319 322 324 324 324 323 324 323 324 324 324 325 325 325 325 324 324 323 322 321 321 320 321 321 321 321 321 321 321 321 321 321 321 322 322 322
173 174 175 176 179 181 183 185 187 188 190 191 192 194 194 195 196 197 198 200 201 202 203 206 209 213 220 231 248 271 292 307 316 320 321 323 323 323 323 324 324 324 325 326 326 326 325 325 324 323 322 321 320 320 321 321 322 322 322 322 322 321 321 321 321 321 322 322 322
174 175 176 178 180 182 184 186 187 189 191 192 193 194 195 196 196 197 198 200 202 202 203 205 208 214 223 239 262 286 302 311 317 319 320 322 322 323 323 324 325 325 326 326 327 326 326 325 323 322 322 321 321 322 322 323 323 323 323 323 322 322 321 321 321 321 321 321 321
175 176 177 179 181 183 185 186 188 190 192 193 194 195 196 196 197 197 198 199 200 201 202 205 209 216 230 253 277 296 308 313 316 318 320 321 322 323 324 325 326 327 327 327 326 326 325 324 323 323 323 324 324 324 324 324 324 323 323 323 322 322 321 320 320 320 320 320 320
176 177 178 180 182 184 185 187 189 191 193 194 195 196 196 196 197 198 198 199 199 200 202 205 211 221 241 267 289 301 308 312 315 317 319 321 322 323 325 326 327 327 327 326 326 325 324 323 323 323 324 324 324 324 323 323 323 323 323 322 322 321 321 320 320 320 320 320 319
176 178 179 181 183 184 187 189 191 193 194 195 196 196 196 196 197 198 198 197 198 198 200 204 213 228 253 281 297 304 308 311 315 317 319 321 323 324 325 326 327 327 326 325 325 324 323 323 322 322 323 323 322 322 321 321 321 322 322 322 321 321 321 320 320 320 320 319 318
177 179 180 182 184 186 188 191 193 194 195 195 195 195 195 196 196 196 196 196 195 196 199 205 216 235 265 289 302 307 311 314 317 319 320 321 323 324 325 326 326 326 325 324 324 323 323 322 322 322 322 322 322 322 322 321 320 320 321 322 322 321 321 320 320 320 320 319 317
178 180 182 184 186 188 190 193 194 195 195 195 194 194 195 195 195 195 194 193 193 195 200 208 221 245 278 298 305 310 314 316 318 319 319 321 322 324 325 325 325 324 324 324 323 323 322 322 322 323 323 323 323 323 322 321 320 320 321 321 321 321 320 319 319 319 319 318 316
180 182 184 187 188 190 192 193 193 193 193 194 194 194 194 194 194 192 191 191 192 195 201 210 229 263 291 303 309 313 314 315 316 317 318 320 322 323 324 324 323 323 323 323 323 323 323 323 323 323 323 323 323 323 322 322 321 320 320 320 320 319 319 318 318 318 318 317 315
182 185 187 189 190 191 192 192 192 192 192 192 193 193 194 193 192 190 189 190 193 196 203 214 248 283 300 308 312 313 313 312 313 315 317 319 321 322 323 323 323 322 323 323 323 323 323 323 323 323 323 323 323 323 323 322 320 319 319 318 318 318 317 317 317 318 317 316 314
185 187 189 191 191 191 191 190 190 191 191 192 192 193 192 191 190 188 188 191 196 203 214 238 272 292 302 309 312 311 309 309 312 314 317 320 321 321 321 322 322 322 322 323 323 323 323 324 324 324 323 323 323 323 323 321 320 318 317 317 317 317 317 318 318 318 317 315 313
187 189 191 191 191 190 189 189 190 190 191 191 191 191 190 189 188 187 189 194 203 217 238 261 283 297 304 308 307 305 304 307 311 315 318 319 320 320 321 321 321 322 323 323 324 324 324 324 324 324 323 323 324 323 322 321 319 318 317 317 317 317 318 319 320 319 318 315 313
188 190 191 191 190 189 189 188 189 189 190 190 190 190 189 187 187 188 195 204 218 234 253 273 290 301 305 305 301 300 303 307 312 315 317 319 319 320 320 321 321 322 323 324 325 324 324 324 324 324 324 324 323 323 322 321 319 317 316 316 317 318 318 318 319 320 320 317 315
188 190 190 190 189 189 189 189 189 189 189 189 189 188 187 187 190 195 205 218 232 247 264 282 295 300 300 299 298 300 304 309 313 316 317 318 319 320 320 321 321 323 324 325 325 325 325 324 324 324 324 324 324 324 323 321 319 317 316 317 317 317 316 316 317 318 319 319 317
188 189 190 190 190 189 189 189 189 189 188 188 187 187 187 189 195 205 216 230 242 258 275 289 297 298 295 295 298 302 307 311 314 316 317 318 319 320 321 321 322 323 324 325 325 325 325 325 325 325 324 324 324 324 323 321 318 316 316 316 316 315 314 313 313 314 316 316 314
188 189 189 189 190 190 189 188 188 188 188 187 187 188 190 194 202 215 228 241 254 270 284 294 293 291 290 292 298 304 309 312 314 316 317 318 319 320 321 322 323 324 324 325 325 325 325 325 325 325 325 324 325 325 323 321 317 315 314 314 314 313 311 310 310 311 311 311 309
188 189 189 189 189 189 188 188 188 187 188 188 189 190 193 199 211 227 240 253 267 280 284 283 282 282 287 295 302 307 310 313 315 316 317 318 320 321 322 323 323 324 324 325 325 326 326 326 326 325 325 325 325 324 323 319 315 313 312 312 311 310 309 308 309 309 308 307 306
187 188 189 188 188 187 187 187 187 188 188 189 190 191 196 204 219 231 243 256 271 276 273 272 276 283 292 300 305 309 311 313 315 316 317 319 320 322 323 323 323 323 324 325 326 326 326 326 325 325 324 324 325 324 322 319 315 312 311 311 310 309 309 309 309 308 306 305 305
185 186 187 187 187 186 186 187 187 187 187 188 190 194 202 214 224 231 238 251 263 267 267 272 280 290 297 303 307 309 311 314 315 317 318 320 321 322 323 324 324 324 325 326 326 326 326 326 325 324 324 324 324 324 323 319 315 312 311 310 310 309 309 310 308 306 305 305 307
181 182 183 185 185 186 185 185 184 184 185 187 192 200 211 222 229 229 232 241 251 259 267 277 287 295 301 305 309 311 312 314 316 318 320 321 322 323 323 324 324 324 325 326 326 326 325 325 324 324 324 324 324 324 322 319 315 312 311 311 311 310 310 309 307 307 307 308 309
177 177 179 181 182 183 183 181 181 182 185 190 198 208 218 226 230 230 232 238 245 257 270 282 291 298 304 308 310 312 314 316 318 319 321 322 322 323 323 324 325 325 325 325 325 325 324 324 324 324 324 324 325 324 322 319 315 313 312 311 311 311 310 309 308 309 310 310 310
173 174 174 176 178 179 179 179 179 181 187 195 206 216 222 226 227 227 231 239 250 263 276 287 295 301 305 309 311 313 316 317 319 320 322 322 323 323 324 325 325 325 325 324 324 324 324 324 324 324 324 324 324 324 322 320 316 314 312 312 312 311 310 309 310 310 310 310 309